owner,sensor,date,latitude,longitude,air_temperature,qcFlag 
COMPS,ioos:station:USF.COMPS:C10:1,2017-02-01T00:05:00Z,27.1690,-82.9260,17.24,1111122 
COMPS,ioos:station:USF.COMPS:C10:1,2017-02-01T00:35:00Z,27.1690,-82.9260,17.32,1111122 
COMPS,ioos:station:USF.COMPS:C10:1,2017-02-01T01:05:00Z,27.1690,-82.9260,17.35,1111122 
COMPS,ioos:station:USF.COMPS:C10:1,2017-02-01T01:35:00Z,27.1690,-82.9260,17.33,1111122 
COMPS,ioos:station:USF.COMPS:C10:1,2017-02-01T02:05:00Z,27.1690,-82.9260,17.38,1111122 
COMPS,ioos:station:USF.COMPS:C10:1,2017-02-01T02:35:00Z,27.1690,-82.9260,17.38,1111122 
COMPS,ioos:station:USF.COMPS:C10:1,2017-02-01T03:05:00Z,27.1690,-82.9260,17.41,1111122 
COMPS,ioos:station:USF.COMPS:C10:1,2017-02-01T03:35:00Z,27.1690,-82.9260,17.48,1111122 
COMPS,ioos:station:USF.COMPS:C10:1,2017-02-01T04:05:00Z,27.1690,-82.9260,17.49,1111122 
COMPS,ioos:station:USF.COMPS:C10:1,2017-02-01T04:35:00Z,27.1690,-82.9260,17.45,1111122 
COMPS,ioos:station:USF.COMPS:C10:1,2017-02-01T05:05:00Z,27.1690,-82.9260,17.46,1111122 
COMPS,ioos:station:USF.COMPS:C10:1,2017-02-01T05:35:00Z,27.1690,-82.9260,17.42,1111122 
COMPS,ioos:station:USF.COMPS:C10:1,2017-02-01T06:05:00Z,27.1690,-82.9260,17.23,1111122 
COMPS,ioos:station:USF.COMPS:C10:1,2017-02-01T06:35:00Z,27.1690,-82.9260,17.25,1111122 
COMPS,ioos:station:USF.COMPS:C10:1,2017-02-01T07:05:00Z,27.1690,-82.9260,17.2,1111122 
COMPS,ioos:station:USF.COMPS:C10:1,2017-02-01T07:35:00Z,27.1690,-82.9260,17.2,1111122 
COMPS,ioos:station:USF.COMPS:C10:1,2017-02-01T11:05:00Z,27.1690,-82.9260,16.78,1111122 
COMPS,ioos:station:USF.COMPS:C10:1,2017-02-01T11:35:00Z,27.1690,-82.9260,16.79,1111122 
COMPS,ioos:station:USF.COMPS:C10:1,2017-02-01T12:05:00Z,27.1690,-82.9260,17.02,1111122 
COMPS,ioos:station:USF.COMPS:C10:1,2017-02-01T12:35:00Z,27.1690,-82.9260,17.18,1111122 
COMPS,ioos:station:USF.COMPS:C10:1,2017-02-01T16:05:00Z,27.1690,-82.9260,17.56,1111122 
COMPS,ioos:station:USF.COMPS:C10:1,2017-02-01T16:35:00Z,27.1690,-82.9260,17.72,1111122 
COMPS,ioos:station:USF.COMPS:C10:1,2017-02-01T18:05:00Z,27.1690,-82.9260,18.02,1111122 
COMPS,ioos:station:USF.COMPS:C10:1,2017-02-01T18:35:00Z,27.1690,-82.9260,17.98,1111122 
COMPS,ioos:station:USF.COMPS:C10:1,2017-02-01T19:05:00Z,27.1690,-82.9260,17.94,1111122 
COMPS,ioos:station:USF.COMPS:C10:1,2017-02-01T19:35:00Z,27.1690,-82.9260,18.08,1111122 
COMPS,ioos:station:USF.COMPS:C10:1,2017-02-01T20:05:00Z,27.1690,-82.9260,18.1,1111122 
COMPS,ioos:station:USF.COMPS:C10:1,2017-02-01T20:35:00Z,27.1690,-82.9260,18.21,1111122 
COMPS,ioos:station:USF.COMPS:C10:1,2017-02-01T21:05:00Z,27.1690,-82.9260,18.5,1111122 
COMPS,ioos:station:USF.COMPS:C10:1,2017-02-01T21:35:00Z,27.1690,-82.9260,18.72,1111122 
COMPS,ioos:station:USF.COMPS:C10:1,2017-02-01T22:05:00Z,27.1690,-82.9260,18.94,1111122 
COMPS,ioos:station:USF.COMPS:C10:1,2017-02-01T22:35:00Z,27.1690,-82.9260,18.96,1111122 
COMPS,ioos:station:USF.COMPS:C10:1,2017-02-02T00:05:00Z,27.1690,-82.9260,18.27,1111122 
COMPS,ioos:station:USF.COMPS:C10:1,2017-02-02T00:35:00Z,27.1690,-82.9260,18.35,1111122 
COMPS,ioos:station:USF.COMPS:C10:1,2017-02-02T01:05:00Z,27.1690,-82.9260,18.39,1111122 
COMPS,ioos:station:USF.COMPS:C10:1,2017-02-02T01:35:00Z,27.1690,-82.9260,18.31,1111122 
COMPS,ioos:station:USF.COMPS:C10:1,2017-02-02T02:05:00Z,27.1690,-82.9260,18.37,1111122 
COMPS,ioos:station:USF.COMPS:C10:1,2017-02-02T02:35:00Z,27.1690,-82.9260,18.27,1111122 
COMPS,ioos:station:USF.COMPS:C10:1,2017-02-02T03:05:00Z,27.1690,-82.9260,18.34,1111122 
COMPS,ioos:station:USF.COMPS:C10:1,2017-02-02T03:35:00Z,27.1690,-82.9260,18.21,1111122 
COMPS,ioos:station:USF.COMPS:C10:1,2017-02-02T08:05:00Z,27.1690,-82.9260,17.67,1111122 
COMPS,ioos:station:USF.COMPS:C10:1,2017-02-02T08:35:00Z,27.1690,-82.9260,17.77,1111122 
COMPS,ioos:station:USF.COMPS:C10:1,2017-02-02T10:05:00Z,27.1690,-82.9260,17.78,1111122 
COMPS,ioos:station:USF.COMPS:C10:1,2017-02-02T10:35:00Z,27.1690,-82.9260,17.68,1111122 
COMPS,ioos:station:USF.COMPS:C10:1,2017-02-02T11:05:00Z,27.1690,-82.9260,17.66,1111122 
COMPS,ioos:station:USF.COMPS:C10:1,2017-02-02T11:35:00Z,27.1690,-82.9260,17.37,1111122 
COMPS,ioos:station:USF.COMPS:C10:1,2017-02-02T12:05:00Z,27.1690,-82.9260,17.3,1111122 
COMPS,ioos:station:USF.COMPS:C10:1,2017-02-02T12:35:00Z,27.1690,-82.9260,17.45,1111122 
COMPS,ioos:station:USF.COMPS:C10:1,2017-02-02T14:05:00Z,27.1690,-82.9260,17.5,1111122 
COMPS,ioos:station:USF.COMPS:C10:1,2017-02-02T14:35:00Z,27.1690,-82.9260,17.63,1111122 
COMPS,ioos:station:USF.COMPS:C10:1,2017-02-02T15:05:00Z,27.1690,-82.9260,17.79,1111122 
COMPS,ioos:station:USF.COMPS:C10:1,2017-02-02T15:35:00Z,27.1690,-82.9260,18.04,1111122 
COMPS,ioos:station:USF.COMPS:C10:1,2017-02-02T17:05:00Z,27.1690,-82.9260,17.77,1111122 
COMPS,ioos:station:USF.COMPS:C10:1,2017-02-02T17:35:00Z,27.1690,-82.9260,17.6,1111122 
COMPS,ioos:station:USF.COMPS:C10:1,2017-02-02T18:05:00Z,27.1690,-82.9260,17.63,1111122 
COMPS,ioos:station:USF.COMPS:C10:1,2017-02-02T18:35:00Z,27.1690,-82.9260,17.71,1111122 
COMPS,ioos:station:USF.COMPS:C10:1,2017-02-02T19:05:00Z,27.1690,-82.9260,17.87,1111122 
COMPS,ioos:station:USF.COMPS:C10:1,2017-02-02T19:35:00Z,27.1690,-82.9260,18.01,1111122 
COMPS,ioos:station:USF.COMPS:C10:1,2017-02-02T20:05:00Z,27.1690,-82.9260,18.18,1111122 
COMPS,ioos:station:USF.COMPS:C10:1,2017-02-02T20:35:00Z,27.1690,-82.9260,18.24,1111122 
COMPS,ioos:station:USF.COMPS:C10:1,2017-02-02T21:05:00Z,27.1690,-82.9260,18.4,1111122 
COMPS,ioos:station:USF.COMPS:C10:1,2017-02-02T21:35:00Z,27.1690,-82.9260,18.56,1111122 
COMPS,ioos:station:USF.COMPS:C10:1,2017-02-02T22:05:00Z,27.1690,-82.9260,18.73,1111122 
COMPS,ioos:station:USF.COMPS:C10:1,2017-02-02T22:35:00Z,27.1690,-82.9260,18.53,1111122 
COMPS,ioos:station:USF.COMPS:C10:1,2017-02-02T23:05:00Z,27.1690,-82.9260,18.33,1111122 
COMPS,ioos:station:USF.COMPS:C10:1,2017-02-02T23:35:00Z,27.1690,-82.9260,18.29,1111122 
COMPS,ioos:station:USF.COMPS:C10:1,2017-02-03T00:05:00Z,27.1690,-82.9260,18.3,1111122 
COMPS,ioos:station:USF.COMPS:C10:1,2017-02-03T00:35:00Z,27.1690,-82.9260,18.43,1111122 
COMPS,ioos:station:USF.COMPS:C10:1,2017-02-03T01:05:00Z,27.1690,-82.9260,18.4,1111122 
COMPS,ioos:station:USF.COMPS:C10:1,2017-02-03T01:35:00Z,27.1690,-82.9260,18.45,1111122 
COMPS,ioos:station:USF.COMPS:C10:1,2017-02-03T02:05:00Z,27.1690,-82.9260,18.46,1111122 
COMPS,ioos:station:USF.COMPS:C10:1,2017-02-03T02:35:00Z,27.1690,-82.9260,18.35,1111122 
COMPS,ioos:station:USF.COMPS:C10:1,2017-02-03T03:05:00Z,27.1690,-82.9260,18.29,1111122 
COMPS,ioos:station:USF.COMPS:C10:1,2017-02-03T03:35:00Z,27.1690,-82.9260,18.43,1111122 
COMPS,ioos:station:USF.COMPS:C10:1,2017-02-03T04:05:00Z,27.1690,-82.9260,18.41,1111122 
COMPS,ioos:station:USF.COMPS:C10:1,2017-02-03T04:35:00Z,27.1690,-82.9260,18.34,1111122 
COMPS,ioos:station:USF.COMPS:C10:1,2017-02-03T06:05:00Z,27.1690,-82.9260,18.08,1111122 
COMPS,ioos:station:USF.COMPS:C10:1,2017-02-03T06:35:00Z,27.1690,-82.9260,18.14,1111122 
COMPS,ioos:station:USF.COMPS:C10:1,2017-02-03T07:05:00Z,27.1690,-82.9260,18.19,1111122 
COMPS,ioos:station:USF.COMPS:C10:1,2017-02-03T07:35:00Z,27.1690,-82.9260,18.27,1111122 
COMPS,ioos:station:USF.COMPS:C10:1,2017-02-03T11:05:00Z,27.1690,-82.9260,17.94,1111122 
COMPS,ioos:station:USF.COMPS:C10:1,2017-02-03T11:35:00Z,27.1690,-82.9260,17.87,1111122 
COMPS,ioos:station:USF.COMPS:C10:1,2017-02-03T13:05:00Z,27.1690,-82.9260,17.91,1111122 
COMPS,ioos:station:USF.COMPS:C10:1,2017-02-03T13:35:00Z,27.1690,-82.9260,17.96,1111122 
COMPS,ioos:station:USF.COMPS:C10:1,2017-02-03T17:05:00Z,27.1690,-82.9260,18.02,1111122 
COMPS,ioos:station:USF.COMPS:C10:1,2017-02-03T17:35:00Z,27.1690,-82.9260,18.01,1111122 
COMPS,ioos:station:USF.COMPS:C10:1,2017-02-03T18:05:00Z,27.1690,-82.9260,18.23,1111122 
COMPS,ioos:station:USF.COMPS:C10:1,2017-02-03T18:35:00Z,27.1690,-82.9260,18.32,1111122 
COMPS,ioos:station:USF.COMPS:C10:1,2017-02-03T19:05:00Z,27.1690,-82.9260,18.34,1111122 
COMPS,ioos:station:USF.COMPS:C10:1,2017-02-03T19:35:00Z,27.1690,-82.9260,18.41,1111122 
COMPS,ioos:station:USF.COMPS:C10:1,2017-02-03T21:05:00Z,27.1690,-82.9260,18.76,1111122 
COMPS,ioos:station:USF.COMPS:C10:1,2017-02-03T21:35:00Z,27.1690,-82.9260,18.9,1111122 
COMPS,ioos:station:USF.COMPS:C10:1,2017-02-03T22:05:00Z,27.1690,-82.9260,19.09,1111122 
COMPS,ioos:station:USF.COMPS:C10:1,2017-02-03T22:35:00Z,27.1690,-82.9260,18.96,1111122 
COMPS,ioos:station:USF.COMPS:C10:1,2017-02-04T00:05:00Z,27.1690,-82.9260,18.67,1111122 
COMPS,ioos:station:USF.COMPS:C10:1,2017-02-04T00:35:00Z,27.1690,-82.9260,18.69,1111122 
COMPS,ioos:station:USF.COMPS:C10:1,2017-02-04T01:05:00Z,27.1690,-82.9260,18.65,1111122 
COMPS,ioos:station:USF.COMPS:C10:1,2017-02-04T01:35:00Z,27.1690,-82.9260,18.59,1111122 
COMPS,ioos:station:USF.COMPS:C10:1,2017-02-04T02:05:00Z,27.1690,-82.9260,18.64,1111122 
COMPS,ioos:station:USF.COMPS:C10:1,2017-02-04T02:35:00Z,27.1690,-82.9260,18.65,1111122 
COMPS,ioos:station:USF.COMPS:C10:1,2017-02-04T03:05:00Z,27.1690,-82.9260,18.72,1111122 
COMPS,ioos:station:USF.COMPS:C10:1,2017-02-04T03:35:00Z,27.1690,-82.9260,18.69,1111122 
COMPS,ioos:station:USF.COMPS:C10:1,2017-02-04T04:05:00Z,27.1690,-82.9260,18.58,1111122 
COMPS,ioos:station:USF.COMPS:C10:1,2017-02-04T04:35:00Z,27.1690,-82.9260,18.59,1111122 
COMPS,ioos:station:USF.COMPS:C10:1,2017-02-04T05:05:00Z,27.1690,-82.9260,18.53,1111122 
COMPS,ioos:station:USF.COMPS:C10:1,2017-02-04T05:35:00Z,27.1690,-82.9260,18.47,1111122 
COMPS,ioos:station:USF.COMPS:C10:1,2017-02-04T06:05:00Z,27.1690,-82.9260,18.43,1111122 
COMPS,ioos:station:USF.COMPS:C10:1,2017-02-04T06:35:00Z,27.1690,-82.9260,18.32,1111122 
COMPS,ioos:station:USF.COMPS:C10:1,2017-02-04T07:05:00Z,27.1690,-82.9260,18.34,1111122 
COMPS,ioos:station:USF.COMPS:C10:1,2017-02-04T07:35:00Z,27.1690,-82.9260,18.37,1111122 
COMPS,ioos:station:USF.COMPS:C10:1,2017-02-04T08:05:00Z,27.1690,-82.9260,18.39,1111122 
COMPS,ioos:station:USF.COMPS:C10:1,2017-02-04T08:35:00Z,27.1690,-82.9260,18.4,1111122 
COMPS,ioos:station:USF.COMPS:C10:1,2017-02-04T09:05:00Z,27.1690,-82.9260,18.35,1111122 
COMPS,ioos:station:USF.COMPS:C10:1,2017-02-04T09:35:00Z,27.1690,-82.9260,18.52,1111122 
COMPS,ioos:station:USF.COMPS:C10:1,2017-02-04T10:05:00Z,27.1690,-82.9260,18.54,1111122 
COMPS,ioos:station:USF.COMPS:C10:1,2017-02-04T10:35:00Z,27.1690,-82.9260,18.32,1111122 
COMPS,ioos:station:USF.COMPS:C10:1,2017-02-04T12:05:00Z,27.1690,-82.9260,17.61,1111122 
COMPS,ioos:station:USF.COMPS:C10:1,2017-02-04T12:35:00Z,27.1690,-82.9260,17.44,1111122 
COMPS,ioos:station:USF.COMPS:C10:1,2017-02-04T15:05:00Z,27.1690,-82.9260,17.83,1111122 
COMPS,ioos:station:USF.COMPS:C10:1,2017-02-04T15:35:00Z,27.1690,-82.9260,17.74,1111122 
COMPS,ioos:station:USF.COMPS:C10:1,2017-02-04T22:05:00Z,27.1690,-82.9260,18.18,1111122 
COMPS,ioos:station:USF.COMPS:C10:1,2017-02-04T22:35:00Z,27.1690,-82.9260,18.31,1111122 
COMPS,ioos:station:USF.COMPS:C10:1,2017-02-04T23:05:00Z,27.1690,-82.9260,18.04,1111122 
COMPS,ioos:station:USF.COMPS:C10:1,2017-02-04T23:35:00Z,27.1690,-82.9260,17.94,1111122 
COMPS,ioos:station:USF.COMPS:C10:1,2017-02-05T00:05:00Z,27.1690,-82.9260,17.95,1111122 
COMPS,ioos:station:USF.COMPS:C10:1,2017-02-05T00:35:00Z,27.1690,-82.9260,17.98,1111122 
COMPS,ioos:station:USF.COMPS:C10:1,2017-02-05T01:05:00Z,27.1690,-82.9260,17.92,1111122 
COMPS,ioos:station:USF.COMPS:C10:1,2017-02-05T01:35:00Z,27.1690,-82.9260,17.86,1111122 
COMPS,ioos:station:USF.COMPS:C10:1,2017-02-05T02:05:00Z,27.1690,-82.9260,17.75,1111122 
COMPS,ioos:station:USF.COMPS:C10:1,2017-02-05T02:35:00Z,27.1690,-82.9260,17.78,1111122 
COMPS,ioos:station:USF.COMPS:C10:1,2017-02-05T03:05:00Z,27.1690,-82.9260,17.82,1111122 
COMPS,ioos:station:USF.COMPS:C10:1,2017-02-05T03:35:00Z,27.1690,-82.9260,17.78,1111122 
COMPS,ioos:station:USF.COMPS:C10:1,2017-02-05T08:05:00Z,27.1690,-82.9260,17.66,1111122 
COMPS,ioos:station:USF.COMPS:C10:1,2017-02-05T08:35:00Z,27.1690,-82.9260,17.33,1111122 
COMPS,ioos:station:USF.COMPS:C10:1,2017-02-05T13:05:00Z,27.1690,-82.9260,15.85,1111122 
COMPS,ioos:station:USF.COMPS:C10:1,2017-02-05T13:35:00Z,27.1690,-82.9260,15.63,1111122 
COMPS,ioos:station:USF.COMPS:C10:1,2017-02-05T14:05:00Z,27.1690,-82.9260,15.66,1111122 
COMPS,ioos:station:USF.COMPS:C10:1,2017-02-05T14:35:00Z,27.1690,-82.9260,15.47,1111122 
COMPS,ioos:station:USF.COMPS:C10:1,2017-02-05T15:05:00Z,27.1690,-82.9260,15.25,1111122 
COMPS,ioos:station:USF.COMPS:C10:1,2017-02-05T15:35:00Z,27.1690,-82.9260,15.38,1111122 
COMPS,ioos:station:USF.COMPS:C10:1,2017-02-05T16:05:00Z,27.1690,-82.9260,15.45,1111122 
COMPS,ioos:station:USF.COMPS:C10:1,2017-02-05T16:35:00Z,27.1690,-82.9260,15.35,1111122 
COMPS,ioos:station:USF.COMPS:C10:1,2017-02-05T17:05:00Z,27.1690,-82.9260,15.37,1111122 
COMPS,ioos:station:USF.COMPS:C10:1,2017-02-05T17:35:00Z,27.1690,-82.9260,15.64,1111122 
COMPS,ioos:station:USF.COMPS:C10:1,2017-02-05T18:05:00Z,27.1690,-82.9260,15.68,1111122 
COMPS,ioos:station:USF.COMPS:C10:1,2017-02-05T18:35:00Z,27.1690,-82.9260,15.44,1111122 
COMPS,ioos:station:USF.COMPS:C10:1,2017-02-05T19:05:00Z,27.1690,-82.9260,15.41,1111122 
COMPS,ioos:station:USF.COMPS:C10:1,2017-02-05T19:35:00Z,27.1690,-82.9260,15.38,1111122 
COMPS,ioos:station:USF.COMPS:C10:1,2017-02-05T20:05:00Z,27.1690,-82.9260,15.55,1111122 
COMPS,ioos:station:USF.COMPS:C10:1,2017-02-05T20:35:00Z,27.1690,-82.9260,15.98,1111122 
COMPS,ioos:station:USF.COMPS:C10:1,2017-02-05T21:05:00Z,27.1690,-82.9260,16.36,1111122 
COMPS,ioos:station:USF.COMPS:C10:1,2017-02-05T21:35:00Z,27.1690,-82.9260,16.78,1111122 
COMPS,ioos:station:USF.COMPS:C10:1,2017-02-05T22:05:00Z,27.1690,-82.9260,16.76,1111122 
COMPS,ioos:station:USF.COMPS:C10:1,2017-02-05T22:35:00Z,27.1690,-82.9260,16.59,1111122 
COMPS,ioos:station:USF.COMPS:C10:1,2017-02-06T00:05:00Z,27.1690,-82.9260,15.89,1111122 
COMPS,ioos:station:USF.COMPS:C10:1,2017-02-06T00:35:00Z,27.1690,-82.9260,15.75,1111122 
COMPS,ioos:station:USF.COMPS:C10:1,2017-02-06T08:05:00Z,27.1690,-82.9260,16.57,1111122 
COMPS,ioos:station:USF.COMPS:C10:1,2017-02-06T08:35:00Z,27.1690,-82.9260,16.56,1111122 
COMPS,ioos:station:USF.COMPS:C10:1,2017-02-06T09:05:00Z,27.1690,-82.9260,16.67,1111122 
COMPS,ioos:station:USF.COMPS:C10:1,2017-02-06T09:35:00Z,27.1690,-82.9260,16.74,1111122 
COMPS,ioos:station:USF.COMPS:C10:1,2017-02-06T11:05:00Z,27.1690,-82.9260,16.83,1111122 
COMPS,ioos:station:USF.COMPS:C10:1,2017-02-06T11:35:00Z,27.1690,-82.9260,16.89,1111122 
COMPS,ioos:station:USF.COMPS:C10:1,2017-02-06T14:05:00Z,27.1690,-82.9260,17.71,1111122 
COMPS,ioos:station:USF.COMPS:C10:1,2017-02-06T14:35:00Z,27.1690,-82.9260,17.65,1111122 
COMPS,ioos:station:USF.COMPS:C10:1,2017-02-06T16:05:00Z,27.1690,-82.9260,18.19,1111122 
COMPS,ioos:station:USF.COMPS:C10:1,2017-02-06T16:35:00Z,27.1690,-82.9260,18.38,1111122 
COMPS,ioos:station:USF.COMPS:C10:1,2017-02-06T19:05:00Z,27.1690,-82.9260,19.07,1111122 
COMPS,ioos:station:USF.COMPS:C10:1,2017-02-06T19:35:00Z,27.1690,-82.9260,19.15,1111122 
COMPS,ioos:station:USF.COMPS:C10:1,2017-02-06T20:05:00Z,27.1690,-82.9260,19.28,1111122 
COMPS,ioos:station:USF.COMPS:C10:1,2017-02-06T20:35:00Z,27.1690,-82.9260,19.44,1111122 
COMPS,ioos:station:USF.COMPS:C10:1,2017-02-06T22:05:00Z,27.1690,-82.9260,20.01,1111122 
COMPS,ioos:station:USF.COMPS:C10:1,2017-02-06T22:35:00Z,27.1690,-82.9260,19.79,1111122 
COMPS,ioos:station:USF.COMPS:C10:1,2017-02-07T00:05:00Z,27.1690,-82.9260,18.85,1111122 
COMPS,ioos:station:USF.COMPS:C10:1,2017-02-07T00:35:00Z,27.1690,-82.9260,18.82,1111122 
COMPS,ioos:station:USF.COMPS:C10:1,2017-02-07T01:05:00Z,27.1690,-82.9260,18.76,1111122 
COMPS,ioos:station:USF.COMPS:C10:1,2017-02-07T01:35:00Z,27.1690,-82.9260,18.72,1111122 
COMPS,ioos:station:USF.COMPS:C10:1,2017-02-07T04:05:00Z,27.1690,-82.9260,18.84,1111122 
COMPS,ioos:station:USF.COMPS:C10:1,2017-02-07T04:35:00Z,27.1690,-82.9260,18.95,1111122 
COMPS,ioos:station:USF.COMPS:C10:1,2017-02-07T05:05:00Z,27.1690,-82.9260,19.04,1111122 
COMPS,ioos:station:USF.COMPS:C10:1,2017-02-07T05:35:00Z,27.1690,-82.9260,19.18,1111122 
COMPS,ioos:station:USF.COMPS:C10:1,2017-02-07T06:05:00Z,27.1690,-82.9260,19.06,1111122 
COMPS,ioos:station:USF.COMPS:C10:1,2017-02-07T06:35:00Z,27.1690,-82.9260,18.83,1111122 
COMPS,ioos:station:USF.COMPS:C10:1,2017-02-07T07:05:00Z,27.1690,-82.9260,18.68,1111122 
COMPS,ioos:station:USF.COMPS:C10:1,2017-02-07T07:35:00Z,27.1690,-82.9260,18.62,1111122 
COMPS,ioos:station:USF.COMPS:C10:1,2017-02-07T08:05:00Z,27.1690,-82.9260,18.62,1111122 
COMPS,ioos:station:USF.COMPS:C10:1,2017-02-07T08:35:00Z,27.1690,-82.9260,18.62,1111122 
COMPS,ioos:station:USF.COMPS:C10:1,2017-02-07T09:05:00Z,27.1690,-82.9260,18.56,1111122 
COMPS,ioos:station:USF.COMPS:C10:1,2017-02-07T09:35:00Z,27.1690,-82.9260,18.52,1111122 
COMPS,ioos:station:USF.COMPS:C10:1,2017-02-07T10:05:00Z,27.1690,-82.9260,18.45,1111122 
COMPS,ioos:station:USF.COMPS:C10:1,2017-02-07T10:35:00Z,27.1690,-82.9260,18.46,1111122 
COMPS,ioos:station:USF.COMPS:C10:1,2017-02-07T11:05:00Z,27.1690,-82.9260,18.44,1111122 
COMPS,ioos:station:USF.COMPS:C10:1,2017-02-07T11:35:00Z,27.1690,-82.9260,18.52,1111122 
COMPS,ioos:station:USF.COMPS:C10:1,2017-02-07T12:05:00Z,27.1690,-82.9260,18.57,1111122 
COMPS,ioos:station:USF.COMPS:C10:1,2017-02-07T12:35:00Z,27.1690,-82.9260,18.55,1111122 
COMPS,ioos:station:USF.COMPS:C10:1,2017-02-07T13:05:00Z,27.1690,-82.9260,18.63,1111122 
COMPS,ioos:station:USF.COMPS:C10:1,2017-02-07T13:35:00Z,27.1690,-82.9260,18.66,1111122 
COMPS,ioos:station:USF.COMPS:C10:1,2017-02-07T14:05:00Z,27.1690,-82.9260,18.66,1111122 
COMPS,ioos:station:USF.COMPS:C10:1,2017-02-07T14:35:00Z,27.1690,-82.9260,18.78,1111122 
COMPS,ioos:station:USF.COMPS:C10:1,2017-02-07T15:05:00Z,27.1690,-82.9260,18.79,1111122 
COMPS,ioos:station:USF.COMPS:C10:1,2017-02-07T15:35:00Z,27.1690,-82.9260,18.81,1111122 
COMPS,ioos:station:USF.COMPS:C10:1,2017-02-07T16:05:00Z,27.1690,-82.9260,18.86,1111122 
COMPS,ioos:station:USF.COMPS:C10:1,2017-02-07T16:35:00Z,27.1690,-82.9260,18.96,1111122 
COMPS,ioos:station:USF.COMPS:C10:1,2017-02-07T17:05:00Z,27.1690,-82.9260,19.09,1111122 
COMPS,ioos:station:USF.COMPS:C10:1,2017-02-07T17:35:00Z,27.1690,-82.9260,19.21,1111122 
COMPS,ioos:station:USF.COMPS:C10:1,2017-02-07T18:05:00Z,27.1690,-82.9260,19.26,1111122 
COMPS,ioos:station:USF.COMPS:C10:1,2017-02-07T18:35:00Z,27.1690,-82.9260,19.35,1111122 
COMPS,ioos:station:USF.COMPS:C10:1,2017-02-07T19:05:00Z,27.1690,-82.9260,19.37,1111122 
COMPS,ioos:station:USF.COMPS:C10:1,2017-02-07T19:35:00Z,27.1690,-82.9260,19.42,1111122 
COMPS,ioos:station:USF.COMPS:C10:1,2017-02-07T20:05:00Z,27.1690,-82.9260,19.46,1111122 
COMPS,ioos:station:USF.COMPS:C10:1,2017-02-07T20:35:00Z,27.1690,-82.9260,19.5,1111122 
COMPS,ioos:station:USF.COMPS:C10:1,2017-02-07T21:05:00Z,27.1690,-82.9260,19.46,1111122 
COMPS,ioos:station:USF.COMPS:C10:1,2017-02-07T21:35:00Z,27.1690,-82.9260,19.56,1111122 
COMPS,ioos:station:USF.COMPS:C10:1,2017-02-07T22:05:00Z,27.1690,-82.9260,19.52,1111122 
COMPS,ioos:station:USF.COMPS:C10:1,2017-02-07T22:35:00Z,27.1690,-82.9260,19.46,1111122 
COMPS,ioos:station:USF.COMPS:C10:1,2017-02-07T23:05:00Z,27.1690,-82.9260,19.34,1111122 
COMPS,ioos:station:USF.COMPS:C10:1,2017-02-07T23:35:00Z,27.1690,-82.9260,19.27,1111122 
COMPS,ioos:station:USF.COMPS:C10:1,2017-02-08T00:05:00Z,27.1690,-82.9260,19.22,1111122 
COMPS,ioos:station:USF.COMPS:C10:1,2017-02-08T00:35:00Z,27.1690,-82.9260,19.16,1111122 
COMPS,ioos:station:USF.COMPS:C10:1,2017-02-08T01:05:00Z,27.1690,-82.9260,19.08,1111122 
COMPS,ioos:station:USF.COMPS:C10:1,2017-02-08T01:35:00Z,27.1690,-82.9260,19.15,1111122 
COMPS,ioos:station:USF.COMPS:C10:1,2017-02-08T02:05:00Z,27.1690,-82.9260,19.08,1111122 
COMPS,ioos:station:USF.COMPS:C10:1,2017-02-08T02:35:00Z,27.1690,-82.9260,19.09,1111122 
COMPS,ioos:station:USF.COMPS:C10:1,2017-02-08T03:05:00Z,27.1690,-82.9260,19.16,1111122 
COMPS,ioos:station:USF.COMPS:C10:1,2017-02-08T03:35:00Z,27.1690,-82.9260,19.12,1111122 
COMPS,ioos:station:USF.COMPS:C10:1,2017-02-08T04:05:00Z,27.1690,-82.9260,19.13,1111122 
COMPS,ioos:station:USF.COMPS:C10:1,2017-02-08T04:35:00Z,27.1690,-82.9260,19.2,1111122 
COMPS,ioos:station:USF.COMPS:C10:1,2017-02-08T05:05:00Z,27.1690,-82.9260,19.29,1111122 
COMPS,ioos:station:USF.COMPS:C10:1,2017-02-08T05:35:00Z,27.1690,-82.9260,19.17,1111122 
COMPS,ioos:station:USF.COMPS:C10:1,2017-02-08T06:05:00Z,27.1690,-82.9260,19.09,1111122 
COMPS,ioos:station:USF.COMPS:C10:1,2017-02-08T06:35:00Z,27.1690,-82.9260,18.98,1111122 
COMPS,ioos:station:USF.COMPS:C10:1,2017-02-08T09:05:00Z,27.1690,-82.9260,17.18,1111122 
COMPS,ioos:station:USF.COMPS:C10:1,2017-02-08T09:35:00Z,27.1690,-82.9260,17.38,1111122 
COMPS,ioos:station:USF.COMPS:C10:1,2017-02-08T10:05:00Z,27.1690,-82.9260,17.75,1111122 
COMPS,ioos:station:USF.COMPS:C10:1,2017-02-08T10:35:00Z,27.1690,-82.9260,18.06,1111122 
COMPS,ioos:station:USF.COMPS:C10:1,2017-02-08T11:05:00Z,27.1690,-82.9260,18.14,1111122 
COMPS,ioos:station:USF.COMPS:C10:1,2017-02-08T11:35:00Z,27.1690,-82.9260,18.5,1111122 
COMPS,ioos:station:USF.COMPS:C10:1,2017-02-08T12:05:00Z,27.1690,-82.9260,18.79,1111122 
COMPS,ioos:station:USF.COMPS:C10:1,2017-02-08T12:35:00Z,27.1690,-82.9260,18.86,1111122 
COMPS,ioos:station:USF.COMPS:C10:1,2017-02-08T13:05:00Z,27.1690,-82.9260,19.0,1111122 
COMPS,ioos:station:USF.COMPS:C10:1,2017-02-08T13:35:00Z,27.1690,-82.9260,19.34,1111122 
COMPS,ioos:station:USF.COMPS:C10:1,2017-02-08T14:05:00Z,27.1690,-82.9260,19.45,1111122 
COMPS,ioos:station:USF.COMPS:C10:1,2017-02-08T14:35:00Z,27.1690,-82.9260,19.48,1111122 
COMPS,ioos:station:USF.COMPS:C10:1,2017-02-08T15:05:00Z,27.1690,-82.9260,19.52,1111122 
COMPS,ioos:station:USF.COMPS:C10:1,2017-02-08T15:35:00Z,27.1690,-82.9260,19.52,1111122 
COMPS,ioos:station:USF.COMPS:C10:1,2017-02-08T16:05:00Z,27.1690,-82.9260,19.47,1111122 
COMPS,ioos:station:USF.COMPS:C10:1,2017-02-08T16:35:00Z,27.1690,-82.9260,19.06,1111122 
COMPS,ioos:station:USF.COMPS:C10:1,2017-02-08T17:05:00Z,27.1690,-82.9260,19.01,1111122 
COMPS,ioos:station:USF.COMPS:C10:1,2017-02-08T17:35:00Z,27.1690,-82.9260,19.07,1111122 
COMPS,ioos:station:USF.COMPS:C10:1,2017-02-08T18:05:00Z,27.1690,-82.9260,19.23,1111122 
COMPS,ioos:station:USF.COMPS:C10:1,2017-02-08T18:35:00Z,27.1690,-82.9260,19.18,1111122 
COMPS,ioos:station:USF.COMPS:C10:1,2017-02-08T19:05:00Z,27.1690,-82.9260,19.12,1111122 
COMPS,ioos:station:USF.COMPS:C10:1,2017-02-08T19:35:00Z,27.1690,-82.9260,19.15,1111122 
COMPS,ioos:station:USF.COMPS:C10:1,2017-02-08T20:05:00Z,27.1690,-82.9260,19.22,1111122 
COMPS,ioos:station:USF.COMPS:C10:1,2017-02-08T20:35:00Z,27.1690,-82.9260,19.24,1111122 
COMPS,ioos:station:USF.COMPS:C10:1,2017-02-08T21:05:00Z,27.1690,-82.9260,19.33,1111122 
COMPS,ioos:station:USF.COMPS:C10:1,2017-02-08T21:35:00Z,27.1690,-82.9260,19.55,1111122 
COMPS,ioos:station:USF.COMPS:C10:1,2017-02-08T22:05:00Z,27.1690,-82.9260,19.48,1111122 
COMPS,ioos:station:USF.COMPS:C10:1,2017-02-08T22:35:00Z,27.1690,-82.9260,19.42,1111122 
COMPS,ioos:station:USF.COMPS:C10:1,2017-02-08T23:05:00Z,27.1690,-82.9260,19.17,1111122 
COMPS,ioos:station:USF.COMPS:C10:1,2017-02-08T23:35:00Z,27.1690,-82.9260,19.28,1111122 
COMPS,ioos:station:USF.COMPS:C10:1,2017-02-09T00:05:00Z,27.1690,-82.9260,19.27,1111122 
COMPS,ioos:station:USF.COMPS:C10:1,2017-02-09T00:35:00Z,27.1690,-82.9260,19.15,1111122 
COMPS,ioos:station:USF.COMPS:C10:1,2017-02-09T01:05:00Z,27.1690,-82.9260,19.34,1111122 
COMPS,ioos:station:USF.COMPS:C10:1,2017-02-09T01:35:00Z,27.1690,-82.9260,19.3,1111122 
COMPS,ioos:station:USF.COMPS:C10:1,2017-02-09T02:05:00Z,27.1690,-82.9260,19.25,1111122 
COMPS,ioos:station:USF.COMPS:C10:1,2017-02-09T02:35:00Z,27.1690,-82.9260,19.43,1111122 
COMPS,ioos:station:USF.COMPS:C10:1,2017-02-09T03:05:00Z,27.1690,-82.9260,19.5,1111122 
COMPS,ioos:station:USF.COMPS:C10:1,2017-02-09T03:35:00Z,27.1690,-82.9260,19.16,1111122 
COMPS,ioos:station:USF.COMPS:C10:1,2017-02-09T04:05:00Z,27.1690,-82.9260,19.68,1111122 
COMPS,ioos:station:USF.COMPS:C10:1,2017-02-09T04:35:00Z,27.1690,-82.9260,19.76,1111122 
COMPS,ioos:station:USF.COMPS:C10:1,2017-02-09T05:05:00Z,27.1690,-82.9260,19.27,1111122 
COMPS,ioos:station:USF.COMPS:C10:1,2017-02-09T05:35:00Z,27.1690,-82.9260,19.29,1111122 